Vertical_Velocity
-1 -1 -2 -2 -1 -1 -1 -1 -2 -1 -1 -2 -2 -2 -2 -2 -2 -1 -1 -2 -2 -2 -1 -1 -1 -1 -1 -1 -1 -1 -1 -1 -1 -1 -1 -2 -2 -2 -2 -2 -2 -2 -1 1 2 2 1 -1 -2 -2 -2 -2 -2 -1 -1 -1 -2 -2 -2 -1 -1 -1 -1 -1 -0 -0 -0 -1 -1 -1 -0 -0 -0 -0 -0 -0 -0 -0 -0 -0 -0 -0 -0 -0 -0 -0 -0 -1 -1 -1 -0 1 1 0 -0 0 0 0 -1 0 2 2 -0
-1 -1 -1 -1 -1 -1 -1 -1 -2 -1 -1 -2 -2 -2 -1 -1 -1 -1 -1 -2 -2 -2 -2 -2 -2 -2 -2 -2 -2 -1 -1 -1 -1 -1 -1 -1 -1 -2 -2 -2 -2 -1 -0 0 1 1 0 -1 -1 -2 -2 -2 -2 -1 -1 -1 -1 -2 -1 -1 -2 -2 -2 -1 -1 -1 -1 -1 -1 -1 -0 -0 -0 -0 -0 -0 -0 -0 -0 0 0 0 -0 -0 -0 -0 -0 -0 -0 -1 -1 -0 1 2 0 0 0 1 0 -0 1 2 4
-1 -1 -1 -1 -1 -1 -1 -1 -1 -1 -1 -1 -1 -1 -1 -1 -1 -1 -1 -2 -2 -2 -2 -2 -2 -2 -2 -2 -2 -2 -2 -1 -1 -1 -1 -1 -1 -1 -2 -2 -1 -1 -0 0 0 1 0 -0 -1 -2 -2 -2 -1 -1 -1 -1 -1 -1 -1 -1 -1 -2 -2 -1 -1 -1 -1 -1 -1 -1 -1 -0 -0 -0 -0 -0 -0 -0 -0 0 0 1 0 0 -0 -0 -0 -0 -1 -1 -1 -1 0 1 1 -0 0 1 1 0 1 2 5
-1 -1 -1 -1 -1 -1 -1 -1 -1 -1 -1 -1 -1 -1 -1 -1 -1 -1 -1 -1 -1 -1 -2 -2 -2 -2 -2 -2 -2 -2 -2 -2 -2 -1 -1 -1 -1 -1 -1 -1 -1 -0 -0 0 1 1 1 -0 -1 -2 -2 -1 -1 -1 -1 -1 -1 -1 -1 -1 -1 -1 -2 -2 -2 -2 -2 -1 -1 -1 -1 -1 -0 -0 -0 -0 -0 -0 -0 0 1 1 1 0 0 0 -0 -0 -1 -1 -1 -1 -0 0 2 -0 -0 1 1 1 1 2 5
-1 -1 -1 -1 -1 -1 -1 -1 -1 -1 -1 -1 -1 -1 -1 -1 -1 -1 -1 -1 -1 -1 -1 -2 -2 -2 -2 -2 -2 -2 -2 -2 -2 -2 -1 -1 -1 -1 -1 -0 0 -0 -0 0 1 1 1 -1 -2 -2 -1 -1 -0 -0 -0 -1 -1 -1 -1 -1 -1 -1 -1 -2 -2 -2 -2 -2 -1 -1 -1 -1 -0 -0 -0 -0 -0 -0 -0 0 0 1 1 1 1 0 0 -0 -0 -1 -1 -1 -1 -0 1 0 0 0 0 -0 -0 0 3
-0 -0 -0 -0 -0 -1 -1 -1 -1 -1 -1 -1 -1 -1 -1 -1 -1 -1 -1 -1 -1 -1 -1 -1 -1 -1 -1 -1 -1 -1 -2 -2 -2 -2 -2 -1 -1 -1 -0 0 0 -0 -1 0 1 2 0 -1 -2 -2 -1 -0 0 0 0 -0 -0 -1 -1 -1 -1 -1 -1 -2 -3 -2 -2 -2 -1 -1 -1 -1 -1 -1 -1 -1 -0 -0 0 0 0 0 0 0 1 1 1 0 0 -0 -0 -1 -1 -1 -0 -0 0 0 -0 0 0 1 1
-0 -0 -0 -0 -0 -0 -0 -0 -0 -0 -0 -1 -1 -1 -1 -1 -1 -1 -1 -1 -1 -1 -1 -1 -1 -1 -1 -1 -1 -1 -1 -2 -2 -2 -2 -2 -1 -1 -0 -0 -0 -0 -0 1 1 1 0 -0 -1 -1 -1 -1 -0 0 0 -0 -0 -1 -1 -1 -1 -1 -1 -2 -3 -3 -2 -2 -1 -1 -1 -1 -1 -1 -1 -1 -1 -0 0 0 0 -0 -0 0 0 1 1 1 1 0 0 -0 -1 -1 -1 -0 -0 -0 -1 1 3 4 1
-0 -0 -0 -0 -0 -0 -0 -0 -0 -0 -0 -0 -0 -0 -0 -1 -1 -1 -1 -1 -1 -0 -0 -0 -0 -1 -1 -1 -1 -1 -1 -1 -1 -2 -2 -2 -2 -1 -1 -1 -1 -0 -0 1 1 1 0 0 0 0 -0 -1 -1 -0 -0 -0 -0 -0 -1 -1 -1 -1 -1 -2 -2 -3 -2 -2 -1 -1 -1 -1 -1 -1 -1 -1 -1 -1 -0 -0 -0 -0 -0 -0 0 0 0 1 1 1 1 0 -0 -0 -0 -1 -1 -1 -1 0 3 4 -0
-0 -0 -0 -1 -0 -0 -0 -0 -0 -0 -0 -0 -0 -0 -0 -0 -0 -0 -0 -0 -0 -0 -0 -0 -0 -0 -0 -0 -1 -1 -1 -1 -1 -1 -1 -1 -1 -1 -1 -1 -1 -0 -0 0 1 1 1 1 1 1 0 -0 -1 -1 -0 -0 -0 -1 -1 -1 -1 -1 -1 -1 -2 -2 -2 -2 -2 -1 -1 -1 -0 -1 -1 -1 -1 -1 -0 -0 -1 -1 -1 -0 0 0 0 0 0 1 1 1 0 0 -0 -0 -1 -1 -1 -1 0 2 2
-0 -0 -0 -0 -0 -0 -0 -0 -0 -0 -0 -0 -0 -0 -0 -0 -0 0 -0 -0 -0 -0 -0 -0 -0 -0 -0 -0 -0 -0 -1 -1 -1 -1 -1 -1 -1 -1 -1 -1 -1 -1 -0 -0 0 1 1 1 1 1 0 -0 -0 -1 -0 -0 -1 -1 -1 -1 -1 -1 -1 -1 -1 -2 -2 -2 -2 -2 -1 -0 -0 -0 -1 -1 -1 -0 -0 -1 -1 -1 -1 -0 0 0 0 -0 -0 0 0 1 1 1 0 0 -0 -1 -1 -1 -0 1 4
-0 -0 -0 -0 -0 -0 -0 -0 -0 -0 -0 -0 -0 -0 0 0 0 0 0 0 0 -0 -0 -0 -0 -0 -0 -0 -0 -1 -1 -0 -0 -0 -1 -1 -1 -1 -1 -1 -1 -1 -1 -0 0 1 1 1 1 1 0 0 0 -0 -0 -0 -1 -1 -1 -1 -1 -1 -1 -1 -1 -1 -2 -2 -2 -2 -1 -1 -0 -0 -0 -0 -0 -0 -0 -1 -1 -1 -1 -0 0 0 0 -0 -0 -0 0 1 1 1 1 1 -0 -1 -1 -1 -1 -0 2
-0 -0 -0 -0 -0 -0 -0 -0 -0 -0 -0 -0 -0 0 0 0 0 0 0 -0 -0 0 0 0 -0 -0 -0 -0 -1 -1 -1 -0 -0 -0 -0 -1 -1 -1 -1 -1 -1 -1 -1 -0 -0 0 1 1 1 1 1 0 0 0 -0 -0 -1 -1 -1 -1 -1 -1 -1 -1 -1 -1 -2 -2 -2 -2 -2 -1 -1 -0 -0 -0 -0 0 0 -0 -1 -1 -1 -0 0 0 0 -0 -0 -0 -0 0 1 1 1 1 0 -0 -1 -1 -1 -1 -0
-0 -0 -0 -0 -0 -0 -0 -0 -0 -0 -0 -0 -0 -0 -0 -0 -0 -0 -0 -0 -0 -0 -0 -0 -0 -0 -0 -1 -1 -1 -1 -1 -0 -0 -0 -0 -0 -1 -1 -1 -1 -1 -1 -0 -0 0 0 1 1 1 1 1 1 0 -0 -0 -1 -1 -1 -1 -1 -2 -2 -2 -2 -2 -2 -2 -2 -2 -2 -2 -1 -1 -1 -0 0 0 0 -0 -1 -1 -1 -0 -0 0 0 -0 -0 -0 -0 -0 0 1 1 1 1 0 -0 -0 -1 -1 -1
-0 -0 -0 -0 -0 -0 -0 -0 -0 -0 -0 -0 -0 -0 -0 -0 -0 -0 -0 -0 -0 -0 -0 -0 -0 -0 -1 -1 -1 -1 -1 -1 -0 -0 -0 -0 -0 -1 -1 -1 -1 -1 -1 -0 -0 -0 0 0 0 0 1 1 1 1 0 -0 -0 -1 -1 -1 -1 -2 -2 -2 -2 -2 -2 -2 -2 -2 -2 -2 -2 -1 -1 -0 0 0 0 0 -0 -1 -1 -0 -0 0 0 0 -0 -0 -0 -0 0 1 1 1 1 0 0 0 -0 -0 -1
-0 -0 -0 -0 -0 -0 -0 -0 -0 -0 -0 -0 -0 -0 -0 -0 -0 -0 -0 -0 -0 -0 -0 -1 -1 -1 -1 -1 -1 -1 -1 -1 -0 -0 -0 -0 -0 -0 -0 -1 -1 -1 -1 -0 -0 -0 0 0 0 1 1 1 1 1 1 0 -0 -1 -1 -1 -1 -2 -2 -2 -2 -2 -2 -2 -2 -2 -2 -2 -2 -2 -1 -1 -0 0 1 0 -0 -0 -1 -0 -0 0 0 -0 -0 -0 -0 -0 0 0 1 1 1 1 1 0 0 -0 -1
-0 -1 -1 -1 -1 -1 -0 -0 -0 -0 -0 -0 -0 -0 -1 -0 -0 -0 -0 -0 -0 -0 -1 -1 -1 -1 -1 -1 -1 -1 -1 -1 -1 -0 -0 -0 -0 -0 -0 -0 -0 -0 -0 -0 -0 0 0 0 0 1 1 1 1 1 1 0 -0 -1 -1 -1 -1 -1 -2 -2 -2 -2 -2 -2 -2 -2 -2 -2 -2 -2 -2 -1 -1 0 1 1 0 -0 -0 -0 -0 -0 -0 -0 -0 -0 -0 -0 0 0 1 1 1 1 1 1 1 0 -0
-0 -1 -1 -1 -1 -1 -1 -1 -0 -0 -0 -0 -0 -0 -0 -0 -0 -0 -0 -1 -1 -1 -1 -1 -1 -1 -1 -1 -1 -1 -1 -1 -1 -1 -0 -0 -0 -0 -0 -0 -0 -0 0 0 0 0 0 0 0 0 0 1 0 0 0 -0 -0 -1 -1 -1 -1 -1 -1 -2 -2 -2 -2 -2 -2 -2 -2 -2 -2 -2 -2 -2 -1 -0 0 1 1 0 0 -0 -0 -0 -0 -1 -1 -1 -0 -0 -0 0 1 1 1 1 1 1 1 1 0
-0 -1 -1 -1 -1 -1 -1 -1 -0 -0 -0 -0 -0 -0 -0 -0 -0 -1 -1 -1 -1 -1 -1 -1 -1 -2 -2 -2 -2 -2 -2 -2 -1 -1 -1 -1 -1 -1 -1 -0 -0 -0 -0 0 0 0 0 0 0 0 0 0 -0 -0 -0 -0 -1 -1 -1 -1 -1 -1 -1 -1 -1 -1 -1 -1 -2 -2 -2 -2 -2 -2 -2 -2 -1 -1 -0 1 1 1 1 0 -0 -1 -1 -1 -1 -1 -1 -1 -0 -0 0 1 1 1 1 1 1 1 0
-1 -1 -1 -1 -1 -1 -1 -1 -0 -0 -0 -0 -0 -0 -0 -0 -1 -1 -1 -1 -1 -1 -1 -2 -2 -2 -2 -2 -2 -2 -2 -2 -2 -2 -2 -2 -1 -1 -1 -1 -1 -1 -0 -0 -0 -0 0 0 -0 -0 -0 -0 -0 -1 -0 -1 -1 -1 -1 -1 -1 -1 -1 -1 -1 -1 -1 -1 -1 -1 -1 -1 -1 -1 -2 -2 -1 -1 -1 0 1 1 1 0 -0 -1 -1 -1 -1 -1 -1 -1 -1 -0 0 1 1 1 1 1 1 1 0
-1 -1 -1 -1 -1 -1 -1 -1 -0 -0 -0 -0 -0 -1 -1 -1 -1 -1 -1 -1 -1 -1 -1 -2 -2 -2 -2 -2 -2 -2 -3 -3 -3 -3 -3 -2 -2 -2 -2 -2 -1 -1 -1 -1 -1 -1 -1 -1 -1 -1 -1 -1 -1 -1 -1 -1 -1 -1 -1 -1 -1 -0 -0 -0 -0 -0 -0 -0 -0 -0 -1 -1 -1 -1 -1 -1 -1 -1 -1 -0 0 1 1 1 0 -0 -1 -1 -1 -1 -1 -1 -1 -1 -0 0 1 1 1 1 1 1 0
-1 -1 -1 -1 -1 -1 -1 -0 -0 -0 -0 -0 -0 -1 -1 -1 -1 -1 -1 -1 -2 -2 -2 -2 -2 -2 -2 -2 -2 -2 -3 -3 -3 -3 -3 -3 -3 -3 -2 -2 -2 -2 -2 -2 -1 -1 -1 -1 -1 -1 -1 -1 -1 -1 -1 -1 -1 -1 -1 -1 -0 -0 -0 -0 -0 -0 -0 0 0 -0 -0 -0 -1 -1 -1 -1 -1 -1 -1 -1 -0 0 0 1 1 0 -0 -1 -1 -1 -1 -1 -1 -1 -0 0 1 1 1 1 1 1 0
-1 -1 -1 -1 -1 -0 -0 -0 -0 0 -0 -0 -0 -1 -1 -1 -1 -2 -2 -2 -2 -2 -2 -2 -2 -2 -2 -2 -2 -3 -3 -3 -3 -4 -4 -3 -3 -3 -3 -3 -2 -2 -2 -2 -2 -2 -2 -2 -2 -1 -1 -1 -1 -1 -1 -1 -1 -1 -1 -1 -1 -1 -1 -1 -0 -0 -0 -0 -0 -0 -0 -0 -0 -1 -1 -1 -1 -1 -1 -1 -1 -0 -0 0 1 1 0 -0 -0 -1 -1 -1 -1 -1 -1 -0 0 1 1 1 1 0 0
-1 -1 -1 -1 -0 -0 -0 -0 0 0 -0 -0 -0 -1 -2 -2 -2 -2 -2 -2 -2 -2 -2 -2 -2 -2 -1 -2 -2 -3 -3 -3 -3 -4 -4 -4 -3 -3 -3 -3 -2 -2 -2 -2 -2 -2 -2 -2 -2 -1 -1 -1 -1 -1 -1 -1 -1 -1 -1 -1 -1 -1 -1 -1 -1 -1 -1 -1 -0 -0 -0 -0 -1 -1 -1 -1 -1 -2 -2 -1 -1 -1 -1 -0 0 1 1 0 0 -0 -0 -1 -1 -1 -1 -1 0 1 1 1 0 0 0
-1 -0 -1 -1 -0 -0 -0 0 0 0 -0 -0 -0 -1 -2 -2 -2 -2 -2 -2 -2 -2 -2 -2 -2 -2 -2 -2 -2 -3 -3 -3 -3 -3 -3 -3 -3 -3 -3 -3 -2 -2 -2 -2 -2 -2 -2 -2 -1 -1 -1 -1 -1 -1 -1 -2 -2 -2 -2 -2 -1 -1 -1 -1 -1 -1 -1 -1 -1 -1 -1 -1 -1 -1 -1 -1 -2 -2 -2 -2 -1 -1 -1 -0 -0 0 1 1 1 0 -0 -1 -1 -1 -1 -1 -0 0 1 1 0 -0 -0
-0 -0 -1 -1 -0 -0 0 0 0 0 -0 -0 -1 -1 -2 -2 -2 -2 -2 -2 -2 -2 -2 -2 -2 -2 -2 -2 -2 -3 -3 -3 -3 -3 -3 -3 -3 -3 -3 -2 -2 -2 -2 -2 -2 -2 -2 -2 -1 -1 -1 -2 -2 -2 -2 -2 -3 -3 -2 -2 -2 -2 -2 -2 -2 -1 -1 -1 -1 -1 -1 -1 -1 -1 -1 -1 -1 -2 -2 -2 -2 -1 -1 -1 -0 0 0 1 1 1 0 -0 -1 -1 -1 -1 -0 0 1 1 0 0 -0
-0 -0 -1 -0 -0 -0 0 1 0 0 -0 -1 -1 -1 -2 -2 -2 -2 -2 -2 -2 -2 -2 -2 -2 -2 -2 -2 -3 -3 -3 -3 -3 -3 -2 -2 -2 -2 -2 -2 -2 -2 -2 -2 -2 -2 -2 -2 -2 -2 -2 -2 -2 -2 -2 -2 -2 -2 -2 -2 -1 -1 -1 -1 -1 -1 -1 -1 -1 -1 -1 -1 -1 -1 -1 -1 -1 -1 -1 -1 -2 -1 -1 -1 -1 -0 0 0 1 1 1 0 -0 -1 -1 -0 -0 0 1 1 0 0 0
-0 -0 -1 -0 0 0 1 1 0 -0 -1 -1 -1 -1 -1 -2 -2 -2 -2 -2 -2 -2 -2 -3 -3 -3 -2 -2 -2 -3 -3 -2 -2 -2 -2 -2 -2 -2 -2 -2 -2 -2 -2 -2 -2 -2 -3 -3 -3 -3 -3 -2 -2 -2 -2 -2 -2 -2 -2 -2 -2 -1 -1 -1 -1 -1 -1 -1 -1 -1 -1 -1 -1 -1 -1 -1 -1 -1 -1 -1 -1 -1 -1 -1 -1 -0 -0 0 1 1 1 1 0 -0 -0 -0 0 0 1 1 1 1 1
-0 -0 -0 -0 0 0 1 0 -0 -0 -1 -1 -1 -1 -1 -2 -2 -2 -2 -2 -2 -2 -2 -3 -3 -3 -2 -2 -2 -2 -3 -2 -2 -2 -2 -2 -2 -2 -2 -2 -2 -2 -2 -2 -2 -2 -3 -3 -3 -3 -2 -2 -2 -2 -1 -2 -2 -3 -3 -3 -2 -2 -2 -1 -1 -0 -0 -0 -0 -0 -1 -1 -0 -0 -0 -0 -0 -0 -0 -0 -1 -1 -1 -1 -1 -0 -0 0 0 1 1 1 1 0 0 0 0 0 1 1 1 1 1
-0 -0 -0 0 0 1 1 0 -0 -1 -1 -1 -1 -1 -2 -1 -2 -2 -2 -2 -2 -2 -2 -2 -2 -2 -2 -2 -2 -2 -2 -2 -2 -2 -2 -1 -1 -1 -2 -2 -2 -3 -2 -2 -2 -2 -3 -3 -3 -2 -2 -2 -2 -2 -1 -2 -2 -3 -4 -3 -3 -2 -2 -1 -1 -1 -0 -0 -0 -0 -0 -0 -0 -0 0 1 1 0 0 -0 -0 -0 -0 -0 -0 -0 -0 0 0 0 1 0 0 0 0 0 0 0 1 1 1 1 2
-0 -0 0 0 1 1 0 -0 -1 -1 -1 -1 -1 -1 -2 -1 -1 -2 -2 -2 -2 -2 -2 -2 -2 -2 -2 -2 -2 -2 -3 -3 -2 -2 -2 -1 -1 -1 -1 -2 -2 -3 -3 -3 -3 -3 -3 -3 -3 -3 -3 -3 -3 -2 -2 -2 -2 -3 -4 -3 -3 -2 -2 -1 -1 -1 -1 -0 -0 -0 -0 0 0 0 0 1 1 1 1 0 0 0 0 -0 -0 -0 -0 -0 0 0 0 0 0 0 0 0 0 0 0 0 1 1 2
0 0 0 1 1 1 0 -0 -1 -1 -1 -1 -1 -2 -2 -1 -1 -1 -2 -2 -2 -2 -2 -2 -2 -2 -2 -2 -2 -2 -3 -3 -3 -2 -2 -2 -1 -1 -1 -1 -2 -2 -3 -3 -3 -3 -3 -3 -3 -3 -3 -3 -3 -2 -2 -2 -2 -2 -2 -2 -2 -2 -1 -1 -1 -1 -0 -0 0 0 0 0 1 1 0 0 1 1 1 1 0 0 1 0 0 -0 -0 -0 -0 -0 -0 -0 -0 -0 0 0 0 -0 -0 -0 0 0 1
0 0 1 1 1 1 -0 -0 -1 -1 -1 -1 -1 -2 -2 -1 -1 -1 -1 -2 -2 -2 -2 -2 -2 -2 -2 -2 -2 -2 -2 -2 -3 -2 -2 -2 -1 -1 -1 -0 -1 -1 -1 -1 -1 -2 -2 -2 -2 -2 -2 -2 -2 -2 -1 -1 -1 -1 -1 -1 -1 -1 -0 -0 0 0 0 0 1 1 1 1 1 1 1 0 0 1 1 1 1 1 1 1 1 0 0 0 0 -0 -0 -0 -0 -0 0 0 0 0 -0 -0 -0 -0 0
0 0 1 1 1 1 -0 -0 -1 -1 -1 -1 -1 -2 -2 -1 -1 -1 -1 -2 -2 -2 -1 -1 -1 -1 -2 -2 -2 -2 -2 -2 -2 -2 -2 -1 -1 -0 -0 -0 -0 -0 -1 -1 -1 -1 -1 -0 -1 -1 -1 -1 -1 -1 -0 -0 0 0 -0 -0 -0 -0 0 1 1 1 1 1 1 1 1 1 1 1 1 1 0 0 0 0 0 0 1 1 1 1 0 0 0 0 -0 -0 -0 0 0 0 0 0 0 -0 -0 -1 -1
0 0 1 1 1 1 0 -1 -1 -1 -1 -1 -1 -2 -1 -1 -1 -1 -1 -1 -1 -1 -1 -1 -1 -1 -1 -2 -2 -2 -2 -2 -1 -1 -1 -1 -1 -1 -1 -1 -1 -1 -1 -1 -1 -1 -1 -0 -0 -0 -1 -0 -0 -0 0 0 1 1 1 0 -0 -0 0 0 1 1 1 1 1 1 1 1 1 0 0 0 -0 -1 -1 -1 -1 -1 -0 0 0 0 0 0 0 0 -0 -0 -0 -0 0 0 0 0 0 0 -0 -1 -1
0 0 1 1 1 1 0 -1 -1 -1 -1 -1 -1 -1 -1 -1 -1 -1 -1 -1 -1 -1 -1 -1 -1 -1 -1 -1 -1 -2 -2 -1 -1 -1 -1 -2 -2 -2 -1 -2 -2 -2 -2 -3 -2 -2 -2 -1 -1 -1 -1 -1 -1 -0 0 0 1 1 0 -0 -0 -1 -1 -1 -0 -0 -0 -0 -0 -0 -0 -0 -1 -1 -1 -1 -1 -2 -2 -2 -2 -2 -2 -1 -1 -1 -0 -0 -0 -0 -0 -0 -0 -0 -0 -0 0 0 0 0 0 -0 -1
1 0 1 1 1 1 0 -1 -1 -1 -1 -1 -1 -1 -1 -1 -1 -1 -1 -1 -1 -1 -1 -0 -0 -1 -1 -1 -1 -2 -2 -2 -2 -2 -2 -2 -2 -2 -2 -3 -3 -3 -3 -3 -3 -3 -2 -2 -2 -1 -1 -1 -1 -1 -0 -0 0 0 -0 -1 -1 -1 -2 -2 -1 -1 -1 -1 -1 -1 -2 -2 -2 -2 -2 -2 -2 -3 -3 -3 -3 -3 -3 -2 -2 -1 -1 -1 -1 -1 -1 -1 -0 -0 -0 -0 -0 0 0 1 0 0 -1
1 1 1 1 1 1 0 -0 -1 -1 -1 -1 -1 -1 -1 -1 -1 -1 -1 -1 -1 -1 -0 -0 -0 -1 -1 -1 -1 -2 -2 -2 -2 -2 -3 -3 -2 -2 -2 -3 -3 -3 -3 -3 -3 -3 -2 -2 -2 -2 -2 -2 -2 -1 -1 -1 -1 -1 -1 -1 -2 -2 -2 -2 -2 -2 -2 -2 -2 -2 -2 -2 -2 -2 -2 -3 -3 -3 -3 -3 -3 -3 -2 -2 -2 -1 -1 -1 -0 -0 -0 -0 0 0 0 0 0 0 1 1 1 0 -0
1 1 1 1 1 1 0 -0 -0 -1 -1 -1 -1 -1 -1 -1 -1 -1 -0 -0 -0 -0 -0 -0 -0 -1 -0 -1 -1 -2 -2 -2 -2 -3 -3 -3 -3 -3 -3 -3 -3 -3 -3 -3 -3 -2 -2 -3 -3 -2 -2 -2 -2 -2 -2 -2 -2 -2 -2 -2 -2 -2 -2 -2 -2 -2 -1 -2 -2 -2 -2 -2 -2 -2 -2 -2 -2 -2 -2 -2 -2 -2 -1 -1 -1 -1 -1 -0 -0 0 0 0 0 0 0 0 0 0 1 1 1 1 0
1 1 0 1 1 1 0 0 -0 -0 -1 -1 -1 -1 -1 -1 -1 -0 -0 -0 -0 -0 0 -0 -0 -0 -1 -1 -1 -2 -2 -2 -2 -3 -3 -3 -3 -4 -4 -3 -3 -3 -3 -3 -3 -3 -3 -3 -3 -3 -3 -3 -3 -3 -2 -2 -2 -2 -2 -1 -1 -1 -1 -0 -0 -0 -0 -1 -1 -1 -2 -2 -2 -2 -2 -2 -1 -1 -1 -1 -1 -1 -1 -0 -1 -0 -0 -0 -0 -0 -0 -0 -0 -0 -0 0 0 0 0 1 1 1 1
1 1 1 1 1 1 0 0 0 -0 -1 -1 -1 -1 -1 -0 -0 -0 -0 0 -0 -0 0 0 -0 -1 -1 -1 -1 -2 -2 -2 -2 -3 -3 -3 -3 -4 -4 -4 -4 -4 -4 -3 -3 -3 -3 -3 -3 -4 -4 -3 -3 -3 -3 -3 -2 -2 -1 -1 -0 0 1 1 1 1 1 0 -1 -2 -2 -3 -3 -2 -2 -1 -1 -1 -1 -0 -0 -0 -0 -0 -0 -0 -0 -0 -1 -1 -1 -1 -1 -0 -0 -0 -0 -0 -0 0 1 1 1
1 1 1 1 1 1 1 1 0 -0 -0 -1 -1 -1 -1 -0 -0 -0 -0 0 -0 -0 -0 0 0 -1 -2 -2 -2 -2 -2 -2 -2 -2 -3 -3 -3 -4 -4 -4 -4 -4 -4 -3 -3 -3 -3 -3 -4 -4 -4 -4 -3 -3 -3 -3 -2 -2 -1 -0 0 1 1 1 1 1 1 1 -0 -1 -2 -3 -3 -3 -3 -2 -1 -1 -0 -0 -0 -0 -0 -0 -0 -0 -0 -1 -1 -1 -1 -1 -1 -0 -0 -0 -0 -0 -0 -0 0 1 1
1 1 1 1 1 1 1 1 0 0 -0 -1 -1 -1 -1 -1 -0 -0 0 0 -0 -0 -0 -0 -0 -0 -1 -2 -2 -2 -2 -2 -2 -2 -3 -4 -4 -4 -4 -4 -4 -4 -3 -3 -2 -3 -3 -3 -3 -4 -4 -4 -4 -3 -3 -3 -2 -2 -1 -0 0 0 0 0 0 0 0 0 0 -0 -1 -2 -3 -3 -3 -3 -2 -1 -1 -1 -1 -1 -1 -1 -1 -1 -1 -1 -1 -1 -1 -1 -1 -0 -0 0 0 -0 -0 -0 0 1 1
1 1 1 1 1 1 1 1 0 0 -0 -0 -1 -1 -1 -1 -0 -0 0 0 0 -0 -0 -0 -0 -0 -1 -1 -2 -2 -2 -3 -3 -3 -3 -3 -4 -4 -4 -4 -4 -4 -4 -3 -2 -3 -3 -3 -3 -3 -3 -3 -4 -4 -4 -3 -2 -1 -0 -0 -0 -0 -1 -1 -0 -0 0 0 -0 -0 -0 -1 -2 -2 -3 -3 -2 -2 -1 -1 -1 -2 -2 -2 -1 -1 -1 -1 -1 -1 -1 -1 -1 -0 -0 -0 0 0 0 -0 0 0 1
1 1 1 1 1 1 1 1 0 0 -0 -0 -1 -1 -1 -1 -0 0 0 0 0 0 -0 -0 -0 -0 -1 -1 -2 -2 -2 -3 -3 -4 -3 -3 -4 -4 -4 -4 -4 -4 -4 -3 -3 -3 -3 -3 -3 -3 -3 -3 -3 -4 -4 -3 -2 -1 -0 -0 -1 -1 -1 -1 -1 -0 0 0 -0 -1 -1 -1 -2 -2 -2 -2 -2 -2 -2 -2 -2 -2 -2 -2 -2 -2 -2 -1 -1 -1 -1 -1 -1 -1 -1 -1 -1 -0 -0 -0 0 0 1
1 1 1 1 1 1 1 1 0 0 -0 -0 -1 -1 -1 -1 -0 -0 0 0 0 0 -0 -0 -0 0 0 -1 -1 -2 -2 -2 -3 -4 -4 -4 -4 -4 -5 -5 -5 -5 -4 -4 -3 -3 -3 -3 -3 -3 -3 -3 -3 -3 -3 -2 -1 -1 -0 -1 -1 -2 -2 -1 -1 0 0 0 -0 -1 -1 -1 -1 -1 -2 -2 -2 -2 -2 -3 -3 -3 -3 -2 -2 -2 -2 -2 -2 -1 -1 -1 -1 -2 -2 -2 -2 -1 -1 -0 -0 -0 0
1 1 1 1 1 1 1 1 0 0 -0 -0 -0 -1 -1 -1 -0 -0 0 -0 0 0 -0 -0 -0 -0 0 -0 -0 -1 -2 -2 -3 -3 -3 -4 -4 -4 -5 -5 -5 -5 -4 -4 -4 -3 -3 -3 -3 -3 -3 -3 -3 -2 -2 -1 -1 -1 -1 -2 -2 -1 -1 -1 -0 -0 0 0 0 0 0 1 0 0 0 -0 -1 -2 -3 -3 -3 -4 -4 -3 -3 -3 -3 -2 -2 -1 -1 -1 -1 -2 -2 -3 -3 -2 -1 -1 -1 -1 -0
1 1 1 1 1 1 1 1 0 -0 -0 -0 -0 -0 -1 -0 -0 -0 -0 -0 -0 -0 -0 -0 -1 -0 -0 -0 -0 -0 -1 -2 -2 -2 -3 -4 -4 -4 -4 -5 -5 -5 -4 -4 -4 -4 -4 -4 -4 -3 -3 -3 -2 -1 -0 -0 -0 -0 -1 -2 -1 -1 0 -0 -0 -0 -0 0 1 1 2 3 3 3 3 3 2 1 0 -1 -2 -3 -3 -4 -4 -4 -3 -2 -2 -1 -1 -1 -1 -2 -2 -3 -3 -3 -2 -1 -1 -1 -1
1 1 1 1 1 1 1 0 0 0 -0 -0 -0 -0 -1 -1 -0 -0 -0 -0 -0 -1 -1 -0 -0 -1 -1 -1 -0 -0 -0 -1 -1 -2 -2 -4 -5 -4 -3 -4 -5 -6 -5 -4 -4 -4 -4 -4 -4 -4 -2 -2 -1 -0 1 1 0 -0 -1 -1 -0 -0 0 -0 -1 -1 -1 -1 -0 0 1 2 4 4 5 6 6 5 5 4 3 1 -0 -1 -2 -3 -3 -3 -3 -2 -2 -2 -2 -2 -2 -2 -3 -3 -2 -1 -1 -1 -1
1 1 2 1 1 1 1 0 0 0 0 -0 -0 -0 -1 -0 -0 -0 -0 -0 -0 -0 -1 -0 -0 -1 -1 -2 -1 -1 -0 -1 -1 -2 -1 -2 -4 -6 -6 -4 -4 -5 -6 -5 -4 -4 -5 -5 -5 -4 -2 -1 0 1 1 1 0 -0 -0 0 0 -0 -1 -2 -2 -3 -3 -3 -2 -2 -1 0 1 2 4 5 6 6 7 7 7 6 5 3 2 0 -1 -2 -2 -2 -3 -2 -2 -2 -2 -2 -3 -3 -2 -1 -0 0 -0
2 2 2 1 1 1 1 0 0 0 0 -0 -0 -0 -0 -0 -0 -0 -0 -0 -0 -0 -0 -1 -1 -1 -0 -2 -2 -2 -1 -1 -2 -2 -2 -2 -2 -3 -6 -6 -6 -6 -6 -5 -4 -3 -5 -7 -6 -4 -2 -0 0 0 -0 -0 -1 -1 -1 -0 -1 -2 -3 -4 -4 -4 -4 -4 -4 -4 -3 -3 -2 -0 0 1 2 3 4 6 6 7 7 6 5 4 3 2 1 -1 -2 -2 -2 -2 -2 -2 -2 -2 -2 -1 0 1 1
2 2 2 1 1 1 0 0 0 0 0 0 0 0 0 0 -0 -0 -0 -0 -0 -0 0 -1 -1 -1 0 -1 -2 -3 -2 -2 -2 -1 -2 -3 -2 -0 -0 -3 -5 -7 -8 -7 -5 -3 -4 -8 -8 -6 -2 -1 -0 -1 -1 -2 -2 -2 -2 -2 -3 -4 -4 -4 -5 -5 -4 -5 -5 -5 -5 -5 -4 -3 -3 -2 -2 -1 -0 1 3 4 5 6 6 5 5 4 3 2 -0 -1 -2 -2 -2 -1 -1 -1 -1 -1 -0 1 1
2 2 1 1 1 1 1 1 1 0 0 0 0 0 0 0 -0 -0 -0 0 -0 -0 -0 -1 -2 -2 -2 -1 -1 -2 -2 -2 -1 -1 -0 -2 -3 -1 1 0 -1 -4 -7 -8 -8 -7 -4 -8 -9 -7 -2 -2 -2 -2 -3 -3 -4 -4 -4 -4 -4 -5 -4 -4 -4 -4 -3 -4 -4 -5 -5 -6 -6 -6 -5 -5 -5 -5 -4 -3 -2 -0 1 3 4 4 5 5 4 3 2 0 -1 -2 -2 -2 -1 -1 -1 -1 -1 0 1
2 2 1 1 1 1 1 1 1 0 1 0 0 -0 -0 0 0 0 0 0 0 -0 -1 -1 -1 -2 -3 -2 -1 -1 -2 -1 -1 -2 -1 -1 -2 -2 -2 0 1 -0 -1 -2 -6 -9 -7 -9 -11 -11 -4 -2 -3 -4 -4 -4 -4 -5 -4 -4 -4 -4 -3 -3 -2 -2 -2 -4 -4 -5 -5 -6 -6 -7 -7 -7 -7 -7 -6 -6 -5 -4 -2 -0 1 2 3 3 3 3 3 2 1 -1 -2 -2 -2 -2 -2 -2 -1 -0 1
2 1 1 1 1 1 1 1 1 1 1 0 0 -0 -0 0 0 0 0 0 -0 -0 -1 -1 -1 -2 -3 -4 -3 -2 -2 -2 -2 -2 -2 -1 0 -0 -2 -2 -1 0 1 2 0 -3 -7 -8 -11 -12 -9 -4 -3 -4 -5 -4 -4 -5 -4 -4 -4 -3 -2 -2 -2 -2 -3 -4 -4 -5 -5 -6 -6 -6 -6 -6 -6 -6 -6 -6 -5 -4 -3 -2 -1 -0 0 1 1 1 2 2 2 1 -0 -1 -2 -3 -3 -3 -2 -1 0
1 1 1 1 1 1 1 1 1 1 0 0 0 0 -0 0 0 0 1 0 -0 -1 -1 -1 -2 -2 -2 -4 -4 -4 -3 -3 -2 -2 -2 -2 -0 1 1 -1 -1 -2 -1 0 1 1 -1 -5 -9 -12 -12 -6 -4 -5 -6 -5 -4 -4 -4 -3 -2 -2 -2 -2 -3 -4 -4 -5 -5 -4 -4 -5 -5 -6 -6 -5 -5 -5 -5 -4 -4 -4 -3 -3 -2 -2 -2 -2 -1 -1 -0 1 2 2 1 0 -1 -2 -3 -3 -3 -2 -1
1 1 1 1 1 1 1 1 1 1 0 0 0 0 -0 0 0 1 0 0 -0 -1 -1 -1 -2 -2 -2 -3 -4 -5 -4 -4 -3 -2 -1 -3 -2 -0 1 1 1 1 0 -0 0 1 1 -1 -5 -10 -13 -6 -2 -3 -6 -5 -4 -4 -4 -3 -2 -1 -2 -3 -4 -4 -5 -5 -5 -4 -4 -4 -4 -4 -5 -5 -5 -5 -5 -4 -4 -4 -3 -3 -3 -2 -2 -3 -2 -2 -1 -0 0 1 1 1 -0 -1 -1 -2 -2 -1 -1
2 1 1 1 1 1 1 1 1 1 0 0 0 0 0 1 1 1 0 0 -0 -1 -1 -1 -2 -3 -3 -2 -3 -4 -5 -5 -5 -3 -1 -2 -2 -2 -0 1 2 3 4 3 2 2 1 2 -0 -5 -13 -9 -3 0 -2 -4 -4 -3 -3 -3 -2 -2 -2 -3 -4 -4 -4 -4 -4 -4 -4 -4 -4 -4 -4 -4 -5 -5 -5 -5 -4 -4 -3 -3 -2 -2 -2 -2 -2 -2 -1 -1 -0 0 1 0 -0 -1 -1 -0 -0 -0 0
2 1 1 1 1 1 1 1 1 1 0 0 1 1 1 1 1 1 0 -0 -0 -1 -1 -1 -2 -3 -3 -3 -3 -3 -4 -5 -5 -4 -3 -2 -2 -2 -1 -0 1 2 3 4 4 4 2 2 1 -1 -7 -11 -9 -4 2 -1 -3 -4 -4 -3 -2 -2 -2 -3 -3 -4 -3 -3 -3 -3 -4 -4 -3 -3 -4 -4 -4 -4 -5 -5 -4 -4 -3 -3 -2 -2 -1 -1 -1 -1 -1 -1 -0 0 1 0 0 -0 -0 0 1 1 1
2 1 1 1 1 1 1 1 1 1 0 1 1 1 1 1 1 0 0 -0 -1 -1 -1 -1 -2 -3 -3 -3 -3 -3 -4 -4 -4 -4 -4 -4 -3 -2 -1 -1 -0 1 2 3 4 4 4 4 3 1 -0 -6 -10 -12 -7 -3 -3 -4 -4 -4 -2 -1 -0 -1 -2 -2 -2 -2 -2 -3 -3 -4 -3 -3 -2 -3 -3 -3 -3 -3 -3 -3 -2 -2 -2 -1 -1 -1 -1 -1 -1 -2 -1 -1 -1 0 0 1 1 1 1 2 2
2 2 1 1 1 1 1 1 1 1 1 1 1 1 1 1 1 0 0 -0 -1 -1 -1 -2 -2 -3 -3 -3 -3 -3 -3 -4 -4 -4 -3 -4 -4 -3 -1 -1 -1 -0 1 2 3 4 4 5 4 4 3 1 -3 -8 -12 -10 -8 -6 -5 -4 -2 -1 0 -0 -1 -1 -1 -2 -2 -2 -2 -3 -3 -3 -2 -2 -2 -1 -2 -2 -2 -2 -1 -1 -1 -1 -0 -0 -0 -1 -2 -3 -4 -4 -4 -2 -1 0 1 1 2 2 3
2 1 1 1 1 1 1 1 1 1 1 1 1 1 1 1 1 0 -0 -0 -1 -1 -1 -2 -2 -2 -3 -3 -3 -3 -3 -3 -4 -4 -3 -3 -4 -4 -2 -1 -1 -1 0 1 2 3 4 4 4 5 4 3 2 -0 -3 -7 -8 -9 -8 -6 -4 -1 0 -0 -1 -1 -1 -1 -2 -2 -2 -2 -2 -3 -2 -2 -2 -2 -2 -2 -2 -2 -2 -1 -1 -1 -0 -0 -1 -3 -4 -6 -7 -7 -7 -6 -4 -3 -1 -0 1 2 3
Height
5844 5844 5844 5844 5844 5844 5844 5844 5844 5844 5844 5845 5845 5845 5845 5845 5845 5845 5846 5846 5846 5846 5846 5846 5846 5846 5846 5846 5846 5846 5846 5846 5846 5846 5846 5846 5846 5846 5846 5846 5846 5846 5846 5846 5846 5846 5845 5845 5844 5844 5844 5844 5843 5843 5843 5843 5843 5843 5843 5843 5843 5842 5842 5842 5842 5842 5842 5842 5842 5842 5842 5841 5841 5841 5841 5841 5841 5841 5841 5841 5841 5841 5841 5841 5841 5841 5841 5842 5842 5841 5841 5842 5841 5841 5841 5841 5841 5841 5842 5842 5843 5844 5843
5842 5842 5842 5842 5842 5842 5842 5842 5842 5843 5843 5843 5843 5843 5843 5843 5844 5844 5844 5844 5844 5844 5844 5844 5844 5844 5844 5844 5844 5844 5844 5844 5844 5844 5844 5844 5843 5843 5843 5843 5844 5844 5844 5844 5844 5844 5843 5842 5842 5842 5841 5841 5841 5841 5841 5841 5841 5841 5841 5841 5840 5840 5840 5840 5840 5840 5840 5839 5839 5839 5839 5839 5839 5839 5839 5839 5839 5839 5839 5839 5839 5839 5839 5839 5839 5839 5839 5839 5840 5840 5839 5839 5840 5839 5838 5839 5839 5839 5839 5840 5841 5841 5842
5840 5840 5841 5841 5841 5841 5841 5841 5841 5841 5841 5841 5841 5841 5841 5841 5842 5842 5842 5842 5842 5842 5842 5842 5842 5842 5842 5842 5842 5842 5842 5842 5841 5841 5841 5841 5841 5841 5841 5841 5841 5841 5841 5841 5841 5841 5841 5840 5840 5840 5839 5839 5839 5839 5839 5839 5839 5838 5838 5838 5838 5838 5838 5838 5837 5837 5837 5837 5837 5837 5837 5837 5837 5837 5837 5837 5836 5836 5836 5836 5837 5836 5836 5836 5836 5836 5836 5837 5837 5837 5838 5837 5837 5837 5836 5836 5837 5837 5837 5838 5839 5840 5840
5839 5839 5839 5839 5839 5839 5839 5839 5839 5839 5839 5839 5840 5840 5840 5840 5840 5840 5840 5840 5840 5840 5840 5840 5840 5840 5840 5840 5840 5840 5840 5840 5840 5839 5839 5839 5839 5839 5839 5839 5839 5839 5839 5839 5839 5839 5838 5838 5837 5837 5837 5837 5837 5837 5836 5836 5836 5836 5836 5836 5836 5836 5835 5835 5835 5835 5835 5835 5835 5835 5835 5835 5835 5835 5835 5835 5834 5834 5834 5834 5834 5834 5834 5834 5834 5834 5834 5834 5834 5835 5835 5835 5835 5834 5834 5834 5835 5835 5835 5835 5836 5837 5837
5837 5837 5837 5837 5837 5837 5837 5837 5837 5838 5838 5838 5838 5838 5838 5838 5838 5838 5838 5838 5838 5838 5838 5838 5838 5838 5838 5838 5838 5838 5837 5837 5837 5837 5837 5837 5837 5837 5837 5837 5837 5837 5837 5837 5836 5836 5836 5836 5835 5835 5835 5835 5834 5834 5834 5834 5834 5834 5834 5834 5834 5833 5833 5833 5833 5832 5832 5832 5832 5833 5832 5832 5832 5832 5832 5832 5832 5832 5832 5832 5832 5832 5832 5832 5832 5832 5832 5832 5832 5832 5832 5832 5832 5832 5832 5832 5832 5833 5833 5833 5833 5834 5835
5835 5835 5836 5836 5836 5836 5836 5836 5836 5836 5836 5836 5836 5836 5836 5836 5836 5836 5836 5836 5836 5836 5836 5836 5836 5836 5836 5836 5836 5835 5835 5835 5835 5835 5835 5835 5835 5835 5835 5835 5835 5834 5834 5834 5834 5834 5834 5833 5833 5832 5832 5832 5832 5832 5832 5832 5831 5831 5831 5831 5831 5831 5831 5830 5830 5830 5830 5830 5830 5830 5830 5830 5830 5830 5830 5830 5830 5830 5830 5830 5830 5830 5830 5830 5829 5829 5829 5830 5830 5830 5830 5830 5830 5830 5830 5830 5830 5830 5831 5832 5832 5832 5832
5833 5834 5834 5834 5834 5834 5834 5834 5834 5834 5834 5834 5834 5834 5834 5834 5834 5834 5834 5834 5834 5834 5834 5834 5834 5834 5833 5833 5833 5833 5833 5833 5833 5832 5832 5832 5832 5832 5832 5832 5832 5832 5831 5832 5831 5831 5831 5831 5830 5830 5830 5830 5830 5829 5829 5829 5829 5829 5828 5828 5828 5828 5828 5828 5827 5827 5827 5827 5827 5827 5827 5827 5827 5827 5827 5827 5827 5827 5827 5827 5827 5827 5827 5827 5827 5827 5827 5827 5827 5827 5827 5827 5827 5827 5827 5827 5828 5828 5828 5830 5830 5830 5830
5832 5832 5832 5832 5832 5832 5832 5832 5832 5832 5832 5832 5832 5832 5832 5832 5832 5832 5832 5832 5832 5832 5832 5832 5831 5831 5831 5831 5831 5831 5831 5830 5830 5830 5830 5830 5830 5830 5830 5829 5829 5829 5829 5829 5829 5829 5828 5828 5828 5828 5827 5827 5827 5827 5826 5826 5826 5826 5826 5826 5826 5825 5825 5825 5825 5825 5825 5825 5825 5825 5825 5825 5825 5825 5825 5825 5825 5825 5825 5825 5825 5825 5824 5824 5824 5824 5824 5824 5824 5825 5825 5825 5825 5825 5825 5825 5825 5826 5826 5827 5827 5826 5827
5830 5830 5830 5830 5830 5830 5830 5830 5830 5830 5830 5830 5830 5830 5830 5830 5830 5830 5830 5830 5830 5830 5830 5829 5829 5829 5829 5829 5828 5828 5828 5828 5827 5827 5827 5827 5827 5827 5827 5827 5826 5826 5826 5826 5826 5826 5826 5826 5825 5825 5825 5825 5824 5824 5824 5824 5823 5823 5823 5823 5823 5823 5823 5822 5822 5822 5822 5822 5822 5822 5822 5822 5822 5822 5822 5822 5822 5822 5822 5822 5822 5822 5822 5821 5821 5821 5821 5821 5821 5822 5822 5822 5822 5822 5823 5823 5823 5823 5823 5824 5824 5824 5825
5828 5828 5828 5828 5828 5828 5828 5828 5828 5828 5828 5828 5828 5828 5828 5828 5828 5828 5828 5828 5828 5827 5827 5827 5827 5827 5826 5826 5826 5826 5826 5825 5825 5825 5825 5824 5824 5824 5824 5824 5824 5824 5824 5823 5823 5823 5823 5823 5823 5822 5822 5822 5821 5821 5821 5821 5821 5821 5820 5820 5820 5820 5820 5820 5820 5820 5819 5819 5819 5819 5819 5819 5819 5819 5819 5819 5819 5819 5819 5819 5819 5819 5819 5819 5819 5819 5819 5819 5819 5819 5819 5819 5820 5820 5820 5820 5821 5821 5821 5821 5822 5822 5823
5826 5826 5826 5826 5826 5826 5826 5826 5826 5826 5826 5826 5826 5826 5826 5826 5826 5826 5826 5826 5826 5825 5825 5825 5825 5824 5824 5824 5823 5823 5823 5823 5822 5822 5822 5822 5821 5821 5821 5821 5821 5821 5821 5821 5821 5820 5820 5820 5820 5820 5819 5819 5819 5818 5818 5818 5818 5817 5817 5817 5817 5817 5817 5817 5817 5817 5816 5816 5816 5816 5816 5816 5816 5816 5816 5816 5816 5816 5816 5816 5816 5816 5816 5816 5816 5816 5816 5816 5816 5816 5816 5816 5817 5817 5817 5817 5818 5818 5818 5819 5819 5820 5820
5824 5824 5824 5824 5824 5824 5825 5825 5825 5825 5825 5825 5825 5825 5824 5824 5824 5824 5824 5824 5823 5823 5823 5822 5822 5822 5821 5821 5821 5820 5820 5820 5820 5819 5819 5819 5819 5818 5818 5818 5818 5818 5818 5818 5817 5817 5817 5817 5817 5816 5816 5816 5816 5816 5815 5815 5815 5815 5814 5814 5814 5814 5814 5814 5814 5814 5814 5814 5813 5813 5813 5813 5813 5813 5813 5813 5813 5813 5813 5813 5813 5813 5813 5813 5813 5813 5813 5813 5813 5813 5813 5814 5814 5814 5815 5815 5815 5815 5816 5816 5816 5817 5817
5822 5822 5822 5822 5822 5822 5822 5822 5822 5823 5823 5822 5822 5822 5822 5822 5822 5822 5822 5821 5821 5821 5821 5820 5820 5819 5819 5818 5818 5818 5817 5817 5817 5816 5816 5816 5816 5816 5815 5815 5815 5815 5815 5815 5815 5815 5814 5814 5814 5814 5813 5813 5813 5812 5812 5812 5812 5811 5811 5811 5811 5811 5811 5811 5811 5811 5811 5811 5810 5810 5810 5810 5810 5810 5810 5810 5810 5810 5810 5810 5810 5810 5810 5810 5810 5810 5810 5810 5811 5811 5811 5811 5811 5811 5812 5812 5812 5812 5813 5813 5814 5814 5815
5820 5820 5820 5820 5820 5820 5821 5821 5821 5821 5821 5821 5821 5821 5820 5820 5820 5820 5820 5819 5819 5819 5818 5818 5817 5817 5816 5816 5815 5815 5815 5814 5814 5813 5813 5813 5813 5812 5812 5812 5812 5812 5812 5812 5812 5811 5811 5811 5811 5811 5810 5810 5810 5810 5809 5809 5809 5808 5808 5808 5808 5808 5808 5808 5808 5808 5808 5807 5807 5807 5807 5807 5807 5807 5807 5807 5807 5807 5807 5807 5807 5807 5807 5807 5807 5807 5807 5807 5807 5808 5808 5808 5808 5809 5809 5809 5809 5810 5810 5810 5811 5811 5812
5818 5818 5818 5818 5818 5818 5818 5818 5818 5818 5818 5818 5818 5818 5818 5818 5818 5817 5817 5817 5816 5816 5816 5815 5815 5814 5814 5813 5813 5812 5812 5811 5811 5811 5810 5810 5810 5809 5809 5809 5809 5809 5809 5809 5809 5809 5808 5808 5808 5808 5807 5807 5807 5807 5806 5806 5806 5806 5805 5805 5805 5805 5805 5805 5805 5805 5805 5804 5804 5804 5804 5804 5804 5804 5804 5804 5804 5804 5804 5804 5804 5804 5804 5804 5804 5804 5804 5804 5805 5805 5805 5805 5805 5806 5806 5806 5806 5807 5807 5807 5808 5808 5809
5816 5816 5816 5816 5816 5816 5816 5816 5816 5816 5816 5816 5816 5816 5816 5816 5816 5815 5815 5815 5814 5814 5813 5813 5812 5812 5811 5811 5810 5810 5809 5808 5808 5807 5807 5807 5806 5806 5806 5806 5806 5806 5806 5806 5806 5806 5806 5805 5805 5805 5805 5804 5804 5804 5803 5803 5803 5803 5802 5802 5802 5802 5802 5802 5801 5801 5801 5801 5801 5801 5801 5801 5801 5801 5801 5801 5801 5801 5801 5801 5801 5801 5801 5801 5801 5801 5801 5801 5801 5801 5802 5802 5802 5803 5803 5803 5804 5804 5804 5804 5805 5805 5806
5813 5813 5814 5814 5814 5814 5814 5814 5814 5814 5814 5814 5814 5814 5814 5813 5813 5813 5812 5812 5812 5811 5811 5810 5810 5809 5809 5808 5807 5807 5806 5806 5805 5805 5804 5804 5803 5803 5803 5803 5803 5803 5803 5803 5803 5802 5802 5802 5802 5802 5801 5801 5801 5801 5801 5800 5800 5800 5800 5799 5799 5799 5799 5799 5799 5798 5798 5798 5798 5798 5798 5798 5797 5797 5797 5797 5797 5798 5798 5798 5798 5798 5798 5797 5797 5798 5798 5798 5798 5798 5799 5799 5799 5800 5800 5800 5801 5801 5801 5801 5802 5802 5802
5811 5811 5811 5811 5812 5812 5812 5812 5812 5812 5812 5812 5812 5811 5811 5811 5811 5811 5810 5810 5809 5809 5808 5808 5807 5806 5806 5805 5805 5804 5804 5803 5802 5802 5801 5801 5801 5800 5800 5800 5800 5800 5800 5800 5800 5799 5799 5799 5799 5799 5799 5798 5798 5798 5798 5797 5797 5797 5797 5796 5796 5796 5796 5796 5796 5795 5795 5795 5795 5795 5795 5795 5794 5794 5794 5794 5794 5794 5794 5795 5795 5795 5795 5795 5794 5794 5795 5795 5795 5795 5796 5796 5796 5796 5797 5797 5797 5798 5798 5798 5799 5799 5799
5809 5809 5809 5809 5810 5810 5810 5810 5810 5810 5810 5810 5810 5809 5809 5809 5808 5808 5808 5807 5807 5806 5806 5805 5805 5804 5803 5803 5802 5801 5801 5801 5800 5799 5799 5798 5798 5797 5797 5797 5797 5797 5797 5796 5796 5796 5796 5796 5796 5796 5796 5796 5795 5795 5795 5795 5794 5794 5794 5794 5793 5793 5793 5793 5792 5792 5792 5792 5792 5791 5791 5791 5791 5791 5791 5791 5791 5791 5791 5791 5791 5791 5791 5791 5791 5791 5791 5791 5792 5792 5792 5792 5793 5793 5794 5794 5794 5795 5795 5795 5796 5796 5796
5806 5807 5807 5807 5807 5807 5808 5808 5808 5808 5808 5807 5807 5807 5807 5806 5806 5806 5805 5805 5804 5804 5803 5802 5802 5801 5801 5800 5800 5799 5798 5798 5797 5797 5796 5796 5795 5795 5795 5794 5794 5794 5794 5794 5793 5793 5793 5793 5793 5793 5793 5792 5792 5792 5792 5791 5791 5791 5791 5791 5791 5790 5790 5790 5789 5789 5789 5789 5789 5788 5788 5788 5788 5788 5788 5788 5788 5788 5788 5788 5788 5788 5788 5788 5788 5788 5788 5788 5789 5789 5789 5789 5790 5790 5791 5791 5791 5792 5792 5792 5793 5793 5793
5805 5805 5805 5805 5805 5805 5806 5806 5806 5806 5805 5805 5805 5805 5804 5804 5804 5803 5803 5802 5802 5801 5801 5800 5800 5799 5798 5798 5797 5796 5796 5795 5795 5794 5794 5793 5793 5792 5792 5792 5792 5791 5791 5791 5791 5791 5791 5791 5790 5790 5790 5790 5790 5789 5789 5789 5788 5788 5788 5788 5787 5787 5787 5786 5786 5786 5786 5786 5786 5785 5785 5785 5785 5785 5785 5785 5785 5785 5785 5785 5785 5785 5785 5785 5785 5785 5785 5785 5785 5786 5786 5786 5786 5786 5787 5787 5788 5788 5789 5789 5790 5790 5790
5802 5802 5803 5803 5803 5803 5803 5803 5803 5803 5803 5803 5803 5802 5802 5802 5801 5801 5801 5800 5799 5799 5798 5798 5797 5796 5796 5795 5795 5794 5793 5793 5792 5792 5791 5791 5791 5790 5790 5790 5790 5789 5789 5789 5788 5788 5788 5788 5788 5788 5787 5787 5787 5786 5786 5786 5786 5785 5785 5785 5785 5784 5784 5783 5783 5783 5783 5782 5782 5782 5782 5782 5782 5781 5781 5781 5781 5781 5781 5781 5781 5782 5782 5782 5782 5782 5782 5782 5782 5782 5782 5783 5783 5783 5784 5784 5785 5785 5786 5786 5786 5787 5787
5800 5800 5801 5801 5801 5801 5801 5801 5801 5801 5801 5801 5800 5800 5800 5799 5799 5798 5798 5798 5797 5796 5796 5795 5795 5794 5794 5793 5792 5792 5791 5791 5790 5790 5789 5789 5789 5788 5788 5788 5787 5787 5787 5786 5786 5786 5786 5786 5785 5785 5785 5785 5784 5784 5783 5783 5783 5782 5782 5782 5782 5781 5781 5781 5780 5780 5780 5779 5779 5779 5779 5779 5779 5778 5778 5778 5778 5778 5778 5778 5778 5778 5779 5779 5779 5779 5779 5779 5779 5779 5779 5780 5780 5780 5780 5781 5781 5782 5782 5783 5783 5783 5784
5798 5798 5798 5799 5799 5799 5799 5799 5799 5799 5798 5798 5798 5797 5797 5797 5796 5796 5796 5795 5795 5794 5794 5793 5792 5792 5791 5791 5790 5790 5789 5788 5788 5788 5787 5787 5787 5786 5786 5786 5786 5785 5785 5785 5784 5784 5784 5783 5783 5783 5782 5782 5782 5781 5781 5780 5780 5780 5780 5779 5779 5778 5778 5778 5777 5777 5776 5776 5776 5776 5776 5776 5776 5775 5775 5775 5775 5775 5775 5775 5775 5775 5775 5775 5776 5776 5776 5776 5776 5776 5776 5776 5776 5777 5777 5777 5778 5779 5779 5780 5780 5780 5781
5796 5796 5796 5796 5796 5796 5796 5796 5796 5796 5796 5796 5796 5795 5795 5794 5794 5794 5793 5793 5792 5792 5791 5791 5790 5790 5789 5788 5788 5787 5787 5786 5786 5786 5786 5785 5785 5785 5784 5784 5783 5783 5783 5782 5782 5782 5781 5781 5781 5780 5780 5780 5779 5779 5778 5778 5777 5777 5776 5776 5776 5776 5775 5775 5774 5774 5774 5773 5773 5773 5773 5773 5772 5772 5772 5772 5772 5772 5772 5772 5772 5772 5772 5772 5772 5772 5772 5772 5773 5773 5773 5773 5773 5773 5774 5774 5775 5775 5776 5776 5776 5777 5777
5793 5794 5794 5794 5794 5794 5794 5794 5794 5794 5794 5793 5793 5793 5792 5792 5792 5791 5791 5791 5790 5790 5789 5789 5788 5787 5787 5786 5786 5786 5785 5785 5784 5784 5784 5783 5783 5783 5782 5782 5781 5781 5781 5780 5780 5779 5779 5779 5778 5778 5777 5777 5776 5776 5776 5775 5774 5774 5774 5773 5773 5773 5772 5772 5771 5771 5771 5771 5770 5770 5770 5770 5770 5769 5769 5769 5769 5769 5769 5768 5768 5768 5769 5769 5769 5769 5769 5769 5769 5770 5770 5770 5770 5770 5771 5771 5771 5772 5772 5773 5773 5774 5774
5791 5791 5791 5792 5792 5792 5792 5792 5792 5791 5791 5791 5791 5790 5790 5790 5789 5789 5789 5788 5788 5787 5787 5786 5786 5785 5785 5784 5784 5784 5783 5783 5782 5782 5782 5781 5781 5781 5780 5780 5780 5779 5779 5778 5777 5777 5776 5776 5776 5775 5775 5774 5774 5773 5773 5772 5771 5771 5771 5770 5770 5770 5769 5769 5769 5768 5768 5768 5767 5767 5767 5767 5766 5766 5766 5766 5766 5766 5766 5765 5765 5765 5765 5765 5765 5765 5766 5766 5766 5766 5766 5766 5766 5767 5767 5767 5768 5768 5769 5769 5770 5770 5771
5789 5789 5789 5790 5790 5790 5790 5790 5789 5789 5789 5788 5788 5788 5788 5787 5787 5787 5786 5786 5786 5785 5785 5784 5784 5783 5783 5783 5782 5782 5781 5781 5781 5780 5780 5780 5779 5779 5778 5778 5777 5777 5776 5776 5775 5775 5774 5774 5773 5773 5772 5772 5771 5771 5770 5769 5769 5768 5768 5767 5767 5767 5766 5766 5766 5766 5765 5765 5765 5764 5764 5764 5764 5763 5763 5763 5763 5762 5762 5762 5762 5762 5762 5762 5762 5762 5762 5762 5762 5762 5763 5763 5763 5763 5764 5764 5764 5765 5765 5766 5766 5766 5767
5786 5787 5787 5787 5787 5787 5787 5787 5787 5787 5786 5786 5786 5786 5786 5785 5785 5785 5784 5784 5783 5783 5783 5782 5782 5781 5781 5781 5781 5780 5780 5779 5779 5778 5778 5778 5777 5777 5776 5776 5775 5775 5774 5774 5773 5772 5772 5771 5771 5770 5770 5769 5769 5768 5767 5767 5766 5765 5765 5765 5764 5764 5764 5763 5763 5763 5762 5762 5762 5761 5761 5761 5761 5761 5760 5760 5760 5760 5760 5759 5759 5759 5759 5759 5759 5759 5759 5759 5759 5759 5759 5760 5760 5760 5760 5760 5761 5761 5761 5762 5762 5763 5764
5784 5784 5785 5785 5785 5785 5785 5785 5785 5784 5784 5784 5784 5784 5783 5783 5783 5782 5782 5782 5781 5781 5781 5780 5780 5780 5779 5779 5779 5778 5778 5777 5777 5776 5776 5776 5776 5775 5774 5774 5773 5772 5772 5771 5771 5770 5769 5769 5768 5767 5767 5766 5766 5766 5765 5764 5763 5763 5762 5762 5761 5761 5761 5761 5760 5760 5760 5759 5759 5759 5758 5758 5758 5758 5757 5757 5757 5757 5757 5756 5756 5756 5756 5756 5756 5756 5756 5756 5756 5756 5756 5756 5756 5756 5756 5757 5757 5757 5758 5758 5759 5759 5760
5781 5782 5782 5782 5783 5783 5783 5782 5782 5782 5782 5782 5781 5781 5781 5781 5781 5780 5780 5780 5779 5779 5779 5778 5778 5778 5778 5777 5777 5776 5776 5775 5775 5775 5774 5774 5774 5773 5772 5772 5771 5770 5770 5769 5768 5768 5767 5766 5766 5765 5764 5764 5763 5763 5762 5761 5761 5760 5760 5759 5759 5758 5758 5758 5757 5757 5757 5756 5756 5756 5756 5755 5755 5755 5755 5754 5754 5754 5754 5754 5753 5753 5753 5753 5753 5753 5752 5752 5752 5752 5752 5752 5753 5753 5753 5753 5753 5754 5754 5754 5755 5755 5756
5779 5780 5780 5780 5781 5781 5780 5780 5780 5780 5780 5780 5779 5779 5779 5779 5779 5778 5778 5778 5777 5777 5777 5777 5776 5776 5776 5776 5775 5775 5774 5774 5773 5773 5772 5772 5772 5771 5771 5770 5769 5768 5768 5767 5766 5766 5765 5764 5763 5762 5762 5761 5761 5760 5760 5759 5758 5758 5757 5756 5756 5756 5755 5755 5755 5755 5754 5754 5754 5753 5753 5753 5752 5752 5752 5751 5751 5751 5751 5751 5750 5750 5750 5750 5749 5749 5749 5749 5749 5749 5749 5749 5749 5749 5749 5750 5750 5750 5750 5751 5751 5751 5752
5777 5777 5778 5778 5778 5778 5778 5778 5778 5778 5778 5777 5777 5777 5777 5777 5776 5776 5776 5776 5776 5775 5775 5775 5775 5774 5774 5774 5773 5773 5772 5772 5771 5771 5771 5770 5770 5769 5768 5768 5767 5766 5766 5765 5764 5764 5763 5762 5761 5760 5760 5759 5758 5757 5757 5756 5756 5755 5755 5754 5753 5753 5753 5752 5752 5752 5751 5751 5751 5751 5750 5750 5750 5749 5749 5748 5748 5748 5747 5747 5747 5747 5746 5746 5746 5746 5746 5745 5745 5745 5745 5745 5745 5746 5746 5746 5746 5746 5746 5747 5747 5748 5748
5775 5775 5775 5776 5776 5776 5776 5776 5776 5776 5776 5775 5775 5775 5775 5775 5775 5774 5774 5774 5774 5773 5773 5773 5773 5772 5772 5772 5771 5771 5771 5770 5770 5769 5769 5768 5768 5767 5766 5766 5765 5764 5764 5763 5762 5761 5761 5760 5759 5758 5757 5756 5756 5755 5755 5754 5753 5753 5752 5751 5751 5751 5750 5750 5749 5749 5749 5749 5748 5748 5747 5747 5746 5746 5746 5745 5745 5745 5744 5744 5743 5743 5743 5743 5742 5742 5742 5741 5741 5741 5741 5741 5741 5741 5742 5742 5742 5742 5743 5743 5743 5744 5744
5772 5772 5773 5773 5774 5774 5774 5774 5773 5773 5773 5773 5773 5773 5773 5773 5773 5772 5772 5772 5772 5771 5771 5771 5771 5771 5770 5770 5770 5769 5769 5768 5768 5767 5767 5766 5766 5765 5764 5764 5763 5762 5761 5761 5760 5759 5758 5757 5756 5755 5754 5754 5753 5752 5752 5751 5751 5750 5750 5749 5748 5748 5747 5747 5747 5746 5746 5746 5745 5745 5744 5744 5743 5743 5742 5742 5741 5741 5741 5740 5740 5740 5739 5739 5739 5738 5738 5738 5738 5737 5737 5737 5737 5738 5738 5738 5738 5738 5739 5739 5739 5740 5740
5770 5770 5771 5771 5771 5771 5771 5771 5771 5771 5771 5771 5771 5771 5771 5771 5771 5771 5771 5770 5770 5770 5770 5770 5769 5769 5769 5768 5768 5768 5767 5766 5766 5766 5765 5764 5763 5763 5762 5761 5761 5760 5759 5758 5757 5756 5756 5755 5754 5753 5752 5751 5751 5750 5750 5749 5748 5748 5747 5746 5746 5746 5745 5745 5744 5744 5743 5743 5742 5742 5741 5741 5740 5740 5739 5739 5738 5738 5737 5737 5736 5736 5736 5735 5735 5735 5734 5734 5734 5734 5734 5734 5734 5734 5734 5734 5734 5735 5735 5735 5736 5736 5736
5768 5768 5768 5769 5769 5769 5769 5769 5769 5769 5769 5769 5769 5769 5769 5769 5769 5769 5769 5769 5768 5768 5768 5768 5767 5767 5767 5766 5766 5766 5765 5765 5764 5764 5763 5762 5761 5761 5760 5759 5758 5757 5757 5756 5755 5754 5753 5752 5751 5750 5749 5749 5748 5747 5747 5746 5746 5745 5745 5744 5744 5743 5742 5742 5741 5741 5740 5740 5739 5739 5738 5738 5737 5736 5736 5735 5735 5734 5734 5733 5733 5732 5732 5731 5731 5731 5731 5730 5730 5730 5730 5730 5730 5730 5730 5730 5730 5731 5731 5731 5731 5732 5732
5765 5766 5766 5766 5767 5767 5767 5767 5767 5767 5767 5767 5767 5767 5767 5767 5767 5767 5767 5767 5766 5766 5766 5766 5766 5766 5765 5765 5764 5764 5763 5763 5762 5761 5761 5760 5759 5758 5758 5757 5756 5755 5754 5753 5752 5751 5751 5750 5749 5748 5747 5746 5746 5745 5745 5744 5743 5743 5742 5742 5741 5741 5740 5740 5739 5738 5738 5737 5736 5736 5735 5735 5734 5733 5733 5732 5731 5731 5730 5730 5729 5729 5728 5728 5727 5727 5727 5727 5727 5726 5726 5726 5726 5726 5726 5726 5727 5727 5727 5727 5727 5728 5728
5763 5763 5764 5764 5765 5765 5765 5765 5765 5765 5765 5765 5765 5765 5765 5765 5765 5765 5765 5765 5765 5765 5765 5764 5764 5764 5763 5763 5762 5762 5761 5761 5760 5759 5759 5758 5757 5756 5755 5754 5754 5753 5752 5751 5750 5749 5748 5747 5746 5745 5744 5744 5743 5742 5742 5741 5741 5741 5740 5740 5739 5738 5738 5737 5737 5736 5735 5734 5733 5733 5732 5731 5731 5730 5729 5729 5728 5727 5727 5726 5726 5726 5725 5725 5724 5724 5724 5723 5723 5723 5723 5723 5723 5723 5723 5723 5723 5723 5723 5723 5723 5724 5724
5761 5761 5762 5762 5762 5763 5763 5763 5763 5763 5763 5763 5763 5763 5763 5763 5763 5763 5763 5763 5763 5763 5763 5762 5762 5762 5761 5761 5761 5760 5759 5758 5758 5757 5756 5756 5755 5754 5753 5752 5751 5750 5750 5748 5747 5746 5746 5745 5744 5743 5742 5741 5741 5740 5739 5739 5738 5738 5737 5737 5737 5736 5736 5735 5734 5733 5733 5732 5731 5730 5729 5728 5727 5726 5726 5725 5725 5724 5724 5723 5723 5722 5722 5721 5721 5721 5720 5720 5719 5719 5719 5719 5719 5719 5719 5719 5719 5719 5719 5719 5720 5720 5720
5759 5759 5760 5760 5760 5761 5761 5761 5761 5761 5761 5761 5761 5761 5761 5761 5761 5761 5761 5761 5761 5761 5761 5761 5760 5760 5760 5759 5758 5758 5757 5756 5756 5755 5754 5753 5752 5751 5751 5750 5749 5748 5747 5746 5745 5744 5743 5742 5741 5740 5739 5739 5738 5737 5737 5736 5736 5736 5735 5735 5734 5733 5733 5732 5731 5731 5730 5729 5728 5727 5726 5725 5724 5723 5722 5722 5721 5721 5720 5720 5719 5719 5718 5718 5717 5717 5716 5716 5716 5715 5715 5715 5715 5715 5715 5715 5715 5715 5715 5715 5715 5716 5716
5757 5757 5757 5758 5758 5759 5759 5759 5759 5759 5759 5759 5759 5759 5759 5759 5759 5759 5759 5759 5759 5759 5759 5758 5758 5758 5758 5757 5756 5756 5755 5754 5754 5753 5752 5751 5750 5749 5748 5747 5746 5746 5745 5744 5743 5742 5741 5740 5739 5738 5737 5736 5736 5735 5735 5734 5734 5733 5733 5732 5731 5731 5730 5729 5729 5728 5727 5726 5725 5724 5723 5722 5721 5720 5719 5718 5717 5717 5716 5716 5716 5715 5715 5714 5714 5713 5713 5712 5712 5711 5711 5711 5711 5711 5711 5711 5711 5711 5711 5711 5711 5711 5711
5755 5755 5756 5756 5756 5756 5757 5757 5757 5757 5757 5757 5757 5757 5757 5757 5757 5757 5757 5757 5757 5757 5757 5756 5756 5756 5756 5755 5755 5754 5753 5752 5751 5751 5750 5749 5748 5747 5746 5745 5744 5743 5742 5741 5741 5739 5738 5737 5736 5736 5735 5734 5733 5733 5732 5732 5731 5731 5730 5730 5729 5728 5727 5726 5726 5725 5724 5723 5722 5721 5720 5719 5718 5717 5716 5715 5714 5713 5712 5712 5711 5711 5711 5710 5710 5709 5709 5708 5708 5707 5707 5707 5707 5706 5706 5706 5706 5706 5706 5706 5706 5706 5707
5753 5753 5753 5754 5754 5754 5755 5755 5755 5755 5755 5755 5755 5756 5756 5756 5756 5756 5756 5756 5756 5756 5755 5755 5754 5754 5754 5753 5752 5752 5751 5751 5750 5749 5748 5747 5746 5745 5743 5742 5742 5741 5740 5739 5738 5737 5736 5735 5734 5733 5733 5732 5731 5731 5730 5730 5729 5728 5728 5727 5726 5725 5724 5724 5723 5722 5721 5721 5720 5718 5717 5716 5715 5714 5712 5711 5711 5710 5709 5708 5707 5707 5706 5706 5706 5705 5705 5704 5704 5703 5703 5702 5702 5702 5702 5702 5702 5702 5702 5702 5702 5702 5702
5751 5751 5751 5752 5752 5752 5753 5753 5753 5753 5753 5753 5753 5754 5754 5754 5754 5754 5754 5754 5754 5754 5753 5753 5752 5752 5751 5751 5751 5750 5749 5748 5747 5746 5746 5744 5743 5742 5741 5740 5739 5738 5737 5736 5736 5735 5733 5732 5732 5731 5731 5730 5729 5729 5728 5727 5727 5726 5725 5724 5723 5723 5722 5721 5721 5720 5719 5718 5717 5716 5715 5713 5712 5711 5710 5708 5707 5706 5705 5704 5703 5703 5702 5702 5701 5701 5701 5700 5699 5699 5699 5698 5698 5697 5697 5697 5697 5697 5697 5697 5697 5697 5698
5749 5749 5749 5750 5750 5750 5751 5751 5751 5751 5751 5751 5751 5752 5752 5752 5752 5752 5752 5752 5751 5751 5751 5751 5751 5750 5750 5749 5749 5748 5747 5746 5746 5745 5744 5742 5741 5740 5739 5738 5737 5736 5735 5734 5733 5732 5731 5730 5729 5729 5728 5728 5727 5726 5726 5726 5725 5724 5723 5722 5721 5720 5720 5719 5718 5717 5716 5715 5714 5713 5712 5711 5710 5708 5707 5706 5704 5703 5701 5701 5699 5699 5698 5697 5697 5696 5696 5695 5695 5694 5694 5693 5693 5693 5692 5692 5692 5692 5693 5693 5693 5693 5693
5746 5747 5747 5748 5748 5748 5749 5749 5749 5749 5749 5750 5750 5750 5750 5750 5750 5750 5750 5750 5750 5750 5749 5749 5749 5748 5748 5747 5747 5746 5745 5745 5744 5743 5742 5741 5739 5738 5737 5736 5735 5734 5733 5732 5731 5730 5729 5728 5727 5726 5726 5726 5725 5725 5724 5723 5722 5721 5721 5720 5719 5718 5717 5716 5715 5714 5713 5712 5711 5710 5709 5708 5707 5706 5705 5703 5702 5700 5699 5697 5696 5695 5694 5693 5692 5691 5691 5691 5690 5690 5689 5689 5688 5688 5687 5687 5687 5687 5688 5688 5688 5688 5689
5744 5745 5746 5746 5746 5746 5747 5747 5747 5747 5747 5748 5748 5748 5748 5748 5748 5748 5748 5748 5748 5748 5747 5747 5747 5747 5746 5746 5745 5744 5744 5743 5742 5741 5740 5739 5737 5736 5735 5734 5733 5731 5731 5730 5729 5728 5726 5726 5725 5724 5724 5723 5723 5722 5722 5721 5720 5719 5718 5717 5716 5716 5715 5713 5712 5711 5710 5709 5708 5707 5706 5705 5704 5703 5701 5700 5699 5698 5696 5695 5693 5691 5690 5689 5688 5687 5686 5686 5685 5684 5684 5683 5683 5682 5682 5682 5682 5682 5682 5683 5683 5683 5684
5742 5743 5743 5744 5744 5745 5745 5745 5745 5746 5746 5746 5746 5746 5746 5746 5746 5746 5746 5746 5746 5746 5746 5745 5745 5745 5744 5744 5743 5742 5742 5741 5740 5739 5738 5737 5735 5734 5733 5732 5731 5730 5729 5728 5726 5726 5724 5723 5723 5722 5722 5721 5721 5720 5719 5718 5718 5717 5716 5715 5714 5713 5712 5711 5709 5708 5707 5706 5705 5704 5703 5702 5701 5700 5698 5697 5696 5694 5693 5691 5690 5688 5687 5685 5684 5682 5681 5680 5679 5679 5678 5677 5677 5677 5676 5676 5676 5676 5677 5677 5677 5678 5679
5741 5741 5741 5742 5742 5743 5743 5743 5743 5744 5744 5744 5744 5745 5745 5745 5745 5745 5745 5744 5744 5744 5744 5743 5743 5742 5742 5741 5741 5741 5740 5739 5738 5737 5736 5735 5734 5732 5731 5730 5728 5727 5726 5726 5725 5723 5722 5721 5720 5720 5720 5719 5718 5718 5717 5716 5715 5714 5713 5712 5711 5710 5709 5708 5707 5706 5705 5703 5702 5701 5700 5698 5697 5696 5694 5693 5691 5690 5689 5688 5686 5685 5683 5681 5680 5678 5677 5676 5674 5673 5672 5671 5671 5671 5670 5670 5670 5670 5671 5671 5671 5672 5673
5738 5739 5740 5740 5740 5741 5741 5741 5742 5742 5742 5742 5742 5743 5743 5743 5743 5743 5743 5743 5742 5742 5742 5741 5741 5740 5740 5740 5739 5738 5738 5737 5736 5736 5734 5733 5732 5731 5730 5728 5727 5726 5724 5724 5723 5722 5720 5719 5717 5717 5717 5716 5716 5715 5714 5713 5712 5711 5710 5709 5708 5707 5706 5705 5704 5703 5702 5701 5699 5697 5696 5695 5693 5691 5690 5688 5687 5686 5684 5683 5681 5680 5679 5677 5675 5674 5672 5671 5669 5668 5666 5666 5665 5664 5664 5664 5664 5664 5664 5665 5665 5666 5667
5736 5737 5737 5738 5738 5739 5739 5740 5740 5740 5740 5741 5741 5741 5741 5741 5741 5741 5741 5741 5741 5740 5740 5740 5739 5739 5738 5738 5737 5736 5736 5735 5734 5734 5733 5731 5730 5729 5728 5727 5726 5725 5724 5722 5721 5720 5718 5716 5715 5715 5715 5714 5713 5712 5711 5711 5710 5709 5708 5707 5706 5705 5704 5703 5702 5701 5699 5698 5696 5694 5692 5691 5689 5687 5686 5684 5682 5681 5679 5678 5676 5675 5674 5672 5670 5669 5667 5665 5664 5662 5661 5660 5659 5658 5658 5657 5657 5657 5657 5658 5659 5660 5661
5734 5735 5736 5736 5736 5737 5737 5738 5738 5738 5738 5739 5739 5739 5739 5740 5740 5739 5739 5739 5739 5738 5738 5738 5737 5736 5736 5736 5735 5734 5733 5733 5732 5732 5731 5730 5729 5728 5727 5726 5725 5724 5723 5722 5721 5719 5717 5715 5713 5712 5713 5712 5711 5711 5710 5709 5708 5707 5706 5705 5704 5703 5702 5701 5699 5698 5696 5695 5693 5691 5689 5687 5686 5684 5682 5680 5678 5676 5675 5673 5671 5670 5669 5667 5665 5663 5662 5660 5658 5657 5656 5654 5653 5652 5651 5651 5651 5651 5651 5651 5652 5653 5654
5732 5733 5733 5734 5734 5735 5735 5736 5736 5736 5737 5737 5737 5737 5738 5738 5738 5738 5737 5737 5737 5736 5736 5736 5735 5735 5734 5733 5732 5732 5731 5731 5730 5730 5729 5728 5727 5726 5725 5725 5724 5723 5722 5721 5720 5718 5717 5715 5712 5711 5711 5711 5710 5709 5708 5707 5706 5705 5704 5703 5702 5701 5700 5698 5697 5695 5693 5692 5690 5688 5686 5684 5682 5680 5678 5676 5674 5672 5671 5669 5667 5665 5664 5662 5660 5658 5656 5655 5653 5651 5650 5649 5647 5646 5645 5644 5644 5643 5643 5644 5645 5646 5647
5730 5731 5731 5732 5732 5733 5733 5734 5734 5735 5735 5735 5736 5736 5736 5736 5736 5736 5736 5736 5735 5735 5734 5734 5733 5733 5732 5731 5730 5730 5729 5728 5728 5727 5727 5726 5726 5725 5724 5723 5722 5721 5721 5720 5719 5718 5716 5714 5712 5710 5710 5709 5709 5708 5707 5706 5705 5704 5703 5701 5700 5699 5697 5696 5694 5692 5691 5689 5687 5685 5683 5681 5679 5677 5675 5673 5671 5669 5666 5665 5663 5661 5659 5657 5655 5653 5651 5650 5648 5646 5645 5643 5642 5641 5639 5638 5637 5636 5636 5636 5637 5638 5639
5728 5729 5729 5730 5731 5731 5731 5732 5732 5733 5733 5733 5734 5734 5734 5734 5734 5734 5734 5734 5733 5733 5732 5732 5731 5731 5730 5729 5728 5727 5727 5726 5726 5725 5725 5724 5723 5723 5722 5721 5721 5720 5719 5719 5718 5717 5716 5714 5712 5710 5708 5708 5708 5706 5705 5704 5703 5702 5701 5699 5698 5696 5695 5693 5691 5689 5688 5686 5684 5682 5680 5678 5676 5674 5671 5669 5667 5665 5663 5660 5658 5656 5654 5652 5650 5648 5647 5645 5643 5641 5640 5638 5636 5635 5633 5631 5630 5629 5629 5629 5629 5630 5631
5726 5726 5727 5728 5728 5729 5730 5730 5731 5731 5731 5731 5732 5732 5732 5732 5732 5732 5732 5732 5731 5731 5731 5730 5730 5729 5728 5727 5726 5726 5725 5724 5723 5723 5722 5721 5721 5720 5720 5719 5719 5718 5718 5717 5717 5716 5714 5713 5711 5709 5707 5706 5706 5705 5704 5702 5701 5700 5698 5697 5696 5694 5692 5690 5689 5687 5685 5683 5681 5680 5677 5675 5673 5671 5668 5666 5664 5661 5658 5656 5654 5652 5650 5648 5646 5644 5642 5640 5638 5636 5635 5633 5631 5629 5626 5625 5623 5622 5621 5621 5621 5622 5623
5724 5725 5725 5726 5726 5727 5728 5728 5729 5729 5730 5730 5730 5730 5731 5731 5731 5731 5730 5730 5730 5729 5729 5728 5728 5727 5726 5726 5725 5724 5723 5722 5721 5721 5720 5720 5719 5718 5718 5717 5717 5716 5716 5716 5715 5714 5713 5712 5710 5708 5706 5705 5704 5703 5702 5700 5699 5697 5696 5694 5693 5691 5690 5688 5686 5685 5683 5681 5679 5677 5675 5672 5670 5668 5665 5663 5660 5657 5655 5652 5650 5647 5645 5643 5641 5639 5637 5635 5633 5631 5629 5626 5624 5622 5620 5617 5615 5614 5613 5613 5613 5613 5615
5722 5723 5723 5724 5725 5725 5726 5726 5727 5727 5728 5728 5728 5728 5729 5729 5729 5729 5728 5728 5728 5727 5727 5726 5726 5725 5725 5724 5723 5722 5721 5721 5720 5719 5718 5717 5717 5716 5716 5715 5714 5714 5714 5713 5713 5712 5711 5710 5709 5707 5706 5703 5701 5700 5699 5697 5696 5695 5693 5692 5691 5690 5688 5686 5684 5682 5681 5679 5676 5674 5672 5670 5667 5665 5662 5660 5657 5654 5651 5649 5646 5644 5641 5639 5636 5634 5632 5630 5628 5625 5623 5620 5617 5614 5611 5609 5606 5604 5602 5602 5602 5603 5605
5720 5721 5721 5722 5723 5723 5724 5724 5725 5726 5726 5726 5726 5727 5727 5727 5727 5727 5726 5726 5726 5726 5725 5725 5724 5723 5723 5722 5721 5721 5720 5719 5718 5717 5716 5716 5715 5714 5714 5713 5712 5712 5711 5711 5710 5710 5709 5708 5707 5706 5704 5702 5700 5698 5696 5695 5694 5692 5691 5690 5689 5688 5686 5684 5682 5680 5678 5676 5674 5672 5670 5667 5665 5662 5660 5657 5654 5651 5649 5646 5643 5640 5637 5635 5632 5630 5627 5625 5622 5620 5616 5613 5610 5606 5602 5599 5595 5592 5590 5589 5589 5591 5593
5718 5719 5720 5720 5721 5721 5722 5722 5723 5724 5724 5724 5725 5725 5725 5725 5725 5725 5725 5724 5724 5724 5723 5723 5722 5721 5721 5721 5720 5720 5719 5718 5717 5716 5715 5714 5713 5712 5711 5711 5710 5710 5709 5708 5707 5707 5706 5705 5704 5703 5702 5701 5699 5697 5696 5694 5692 5691 5689 5688 5687 5686 5684 5682 5680 5678 5676 5674 5672 5669 5667 5665 5662 5659 5657 5654 5651 5648 5645 5642 5639 5636 5634 5631 5628 5626 5623 5620 5617 5614 5610 5606 5602 5597 5593 5588 5584 5580 5577 5575 5575 5576 5579